STARLINK-4539 (53423 NORAD) Tracking and Keplerian Element Data

This shows tracking and keplerian element data for the satellite.

Feedback or suggestion? Click here.




ElementValue
Catalog53423
NameSTARLINK-4539
Epoch Orbit797
Epoch Day270.25001157
Epoch Year2022
RAAN11.5043
Inclination53.2179
Eccentricity0.0001796
Argument of Perigee38.564
Mean Anonmoly235.5229
Mean Motion15.49889422
Decay Rate0.00043685
L11 53423U 22097AM 22270.25001157 .00043685 00000+0 77321-3 0 9999
L22 53423 53.2179 11.5043 0001796 38.5640 235.5229 15.49889422 7972

Live tracking and technical data element details for STARLINK-4539 (NORAD 53423). STARLINK-4539 can be tracked NOW for your location showing map with azimuth and elevation plus other details from your city location.

Track the satellite on the map from your city or location and see movement details for azimuth, elevation, latitude, longitude, range, height, and movement on the map or in text.







IsCatalogInMostPopularTable: catalog: 53423, numindb: 5
Update: records affected: 1



GetName: 53423 STARLINK-4539

Hit Count: updated at: Fri, 30 Sep 2022 02:06:54 GMT